sat.trackr.live / text

‹ back to catalog

STARLINK-31292

NORAD 59081 · 2024-041H

PAYLOAD ACTIVE UNKNOWN

§ Identity

Operator
Country
US
Launch date
2024-02-29
Launch site
AFETR
Launch vehicle
Mass (kg)
RCS (m²)

Purposes: comms

External: N2YO · Heavens-Above · Gunter

§ Orbital elements

Epoch: 2026-09-20T19:07:21.871488Z

Period
94.27 min
Inclination
43.0045°
Eccentricity
0.0001544
Mean motion
15.27577622 rev/d
Perigee alt
482.0 km
Apogee alt
484.1 km
Semi-major
6,861.2 km
B*
4.8860e-5
RAAN
288.5869°
Arg perigee
281.2691°
Mean anomaly
78.7988°
Rev number
14,410

§ Raw data

STARLINK-312921 59081U 24041H   26263.79678092  .00001082  00000+0  48860-4 0  99912 59081  43.0045 288.5869 0001544 281.2691  78.7988 15.27577622144101

JSON: /api/v1/satellites/59081 · /tle

For live sub-satellite position, see the globe view (requires WebGL).

§ Visibility from observer

Set your observer location to see the next 7 days of passes ≥ 10°. The values pass through the URL so the page stays shareable.

No JS? Fill the form by hand. The geolocation button needs JavaScript.